Cloud_Cover
100 91 100 91 100 100 95 10 8 98 28 63 29 50 46 93 100 100 100 96 48 2 26 59 16 5 5 16 99 96 72 16 42 62 42 100 93 32 88 100 100 47 100
100 100 100 9 59 100 100 99 32 37 16 7 70 38 4 95 34 13 14 91 61 5 6 58 14 5 5 5 54 31 28 16 30 39 6 5 5 5 11 89 18 7 41
100 100 52 5 20 84 72 34 53 87 96 50 99 100 100 85 100 100 82 4 2 18 5 9 12 5 16 27 34 64 8 12 65 96 42 32 85 91 44 36 29 56 73
84 25 4 1 1 0 2 64 100 100 100 100 98 13 51 21 56 71 4 17 4 4 5 5 25 5 99 96 41 64 73 80 100 76 44 87 100 100 98 70 100 71 90
7 1 4 5 2 0 1 0 14 52 32 25 91 29 61 13 28 10 2 2 5 3 7 4 98 25 24 17 97 48 76 100 100 91 98 81 100 94 100 100 94 60 39
1 5 5 5 5 2 6 0 1 2 8 0 0 4 4 0 0 10 10 11 3 2 1 6 24 5 5 5 6 12 40 45 38 100 100 100 100 100 100 100 100 98 71
6 13 65 95 5 15 5 2 6 5 0 0 0 0 2 1 3 2 4 6 4 0 4 5 9 5 11 39 13 81 37 99 70 65 98 100 100 60 100 23 100 100 81
0 1 23 42 64 36 0 4 0 0 0 1 0 3 1 2 1 1 5 4 3 3 6 6 2 18 52 100 47 86 28 28 69 57 67 60 100 100 100 100 100 100 100
6 0 5 82 33 4 10 1 0 0 10 4 3 5 13 5 5 11 6 5 5 8 4 5 4 46 9 21 100 27 11 13 12 46 75 69 76 100 77 100 100 100 100
42 6 1 56 61 5 0 0 5 5 5 5 5 5 5 5 6 9 7 5 5 29 5 5 5 5 8 32 6 18 30 22 35 36 93 67 11 100 100 100 100 100 100
43 17 0 2 3 39 0 5 5 7 4 9 5 6 5 5 5 13 6 24 14 5 5 5 8 42 77 30 12 21 52 92 100 91 42 92 69 98 100 100 100 100 100
26 20 0 0 6 2 0 0 5 5 5 24 52 5 5 5 6 11 34 24 5 7 6 20 38 5 5 22 18 25 5 87 76 99 70 37 80 98 100 100 100 100 100
0 0 0 0 8 8 5 8 18 30 55 5 5 5 5 5 5 6 8 5 21 4 8 10 6 4 4 4 25 57 22 96 100 81 67 91 100 100 100 100 100 100 100
0 0 0 0 0 9 5 25 21 69 28 30 18 5 23 21 6 11 41 69 68 19 43 5 34 50 84 5 11 10 85 100 100 98 77 100 100 100 100 100 100 100 100
0 0 1 1 5 5 5 47 79 89 20 17 6 48 7 55 23 11 5 29 35 78 69 63 80 100 42 72 53 22 65 100 100 100 40 98 100 100 100 100 100 100 100
0 0 0 4 5 47 97 100 100 6 5 5 7 23 100 100 69 80 5 5 21 90 100 100 39 86 100 12 6 14 27 24 26 44 97 99 93 100 100 100 100 100 100
0 0 0 1 5 5 52 100 100 36 5 10 32 14 29 5 6 90 68 25 97 23 19 52 39 100 98 86 100 94 99 100 73 62 100 100 100 100 100 100 100 100 100
0 0 0 0 0 1 2 6 3 0 3 1 49 7 5 8 5 88 90 88 88 15 79 100 100 98 100 68 84 73 38 24 100 94 100 98 87 100 86 100 100 100 95
0 0 19 0 0 0 0 0 0 0 2 3 4 3 5 55 40 95 100 100 100 94 100 100 100 100 100 100 100 100 100 100 97 51 66 100 65 91 100 87 100 100 100
2 0 65 0 0 0 0 0 0 0 5 0 5 26 75 93 100 100 100 100 98 100 100 100 100 99 100 100 100 100 100 100 96 100 85 70 65 100 97 74 61 95 64
0 0 0 17 0 0 0 0 0 0 0 5 26 47 61 88 100 100 97 100 100 100 99 70 100 100 100 100 95 100 100 100 100 100 92 91 75 100 100 100 100 100 100
0 2 0 3 2 0 0 0 2 0 1 5 5 47 63 100 100 100 100 100 100 100 100 100 100 100 100 100 100 100 100 100 100 100 100 100 100 100 100 100 100 100 100
0 0 0 0 0 0 0 1 2 4 19 47 47 100 94 55 68 99 100 100 100 100 100 100 100 99 100 97 99 100 100 100 100 100 100 98 100 100 100 100 100 100 99
0 0 0 0 0 1 5 5 5 5 30 100 100 100 81 96 69 33 6 7 91 98 99 86 100 100 100 99 100 100 100 100 100 100 100 93 100 100 100 100 100 100 100
2 0 0 0 4 5 5 5 0 0 0 96 100 100 100 100 100 99 20 92 98 98 93 98 47 92 100 100 100 100 100 100 100 100 100 100 100 78 72 100 100 100 100
99 17 1 0 0 5 10 59 4 0 0 8 21 86 88 100 83 88 10 5 5 11 51 79 82 100 90 77 76 87 81 89 100 81 91 15 22 3 0 0 9 79 100